JAL8118 RJOO-RJFK

Flight info

Callsign JAL8118
Flight time 1h 0m
Altitude 40000
Route TIGER MAIKO AWAJI Y232 KRE Y756 VIRUD Y757 SPICA
Aircraft A359/H-SDE2E3GHIJ3J4J5LM1ORWXY/LB1D1

Departure

Time 2026-04-27 12:35
Airport Osaka Itami International Airport (RJOO)

Arrival

Time 2026-04-27 13:35
Airport Kagoshima Airport (RJFK)
Time Latitude Longitude Altitude Speed Heading
2026-04-27 11:54 34.78853 135.44127 49 ft 0 kts 54°
2026-04-27 12:22 34.78844 135.44112 49 ft 3 kts 54°
2026-04-27 12:22 34.78834 135.44091 49 ft 3 kts 75°
2026-04-27 12:22 34.78836 135.44067 49 ft 3 kts 113°
2026-04-27 12:23 34.78846 135.44046 49 ft 3 kts 128°
2026-04-27 12:23 34.78849 135.44041 48 ft 0 kts 129°
2026-04-27 12:28 34.78847 135.44042 48 ft 2 kts 139°
2026-04-27 12:28 34.78813 135.44063 49 ft 9 kts 161°
2026-04-27 12:28 34.78727 135.44079 50 ft 16 kts 174°
2026-04-27 12:29 34.78628 135.44144 52 ft 18 kts 139°
2026-04-27 12:29 34.78535 135.44256 50 ft 20 kts 134°
2026-04-27 12:29 34.78414 135.44342 51 ft 21 kts 168°
2026-04-27 12:29 34.78262 135.44338 53 ft 23 kts 183°
2026-04-27 12:30 34.78094 135.44342 51 ft 25 kts 171°
2026-04-27 12:30 34.78019 135.44362 51 ft 0 kts 158°
2026-04-27 12:31 34.77987 135.44371 50 ft 15 kts 165°
2026-04-27 12:31 34.77882 135.44424 48 ft 18 kts 150°
2026-04-27 12:31 34.77787 135.44538 50 ft 21 kts 122°
2026-04-27 12:32 34.77729 135.44695 55 ft 18 kts 91°
2026-04-27 12:32 34.77761 135.44783 49 ft 6 kts 79°
2026-04-27 12:32 34.77756 135.44832 52 ft 0 kts 105°
2026-04-27 12:32 34.77754 135.44836 52 ft 5 kts 108°
2026-04-27 12:33 34.77711 135.44905 48 ft 12 kts 137°
2026-04-27 12:33 34.77693 135.44921 48 ft 1 kts 146°
2026-04-27 12:33 34.77625 135.44954 50 ft 24 kts 161°
2026-04-27 12:33 34.77522 135.45007 50 ft 0 kts 162°
2026-04-27 12:34 34.77487 135.45012 51 ft 10 kts 184°
2026-04-27 12:34 34.77439 135.44963 52 ft 10 kts 248°
2026-04-27 12:34 34.77462 135.44888 50 ft 11 kts 316°
2026-04-27 12:34 34.77497 135.44848 54 ft 22 kts 316°
2026-04-27 12:35 34.77728 135.44570 48 ft 77 kts 315°
2026-04-27 12:35 34.78286 135.43890 52 ft 148 kts 315°
2026-04-27 12:35 34.79099 135.42904 571 ft 170 kts 315°
2026-04-27 12:35 34.80072 135.42083 1424 ft 173 kts 321°
2026-04-27 12:36 34.80652 135.40699 1870 ft 205 kts 274°
2026-04-27 12:36 34.80219 135.39040 2529 ft 223 kts 232°
2026-04-27 12:36 34.78871 135.37983 3186 ft 244 kts 194°
2026-04-27 12:36 34.77136 135.37993 3939 ft 256 kts 174°
2026-04-27 12:37 34.75333 135.37975 4824 ft 261 kts 184°
2026-04-27 12:37 34.73510 135.37749 5755 ft 266 kts 188°
2026-04-27 12:37 34.71669 135.37399 6722 ft 270 kts 190°
2026-04-27 12:37 34.69822 135.36904 7724 ft 274 kts 198°
2026-04-27 12:38 34.68179 135.35742 8724 ft 277 kts 224°
2026-04-27 12:38 34.67117 135.33795 9732 ft 280 kts 248°
2026-04-27 12:38 34.66520 135.31546 10559 ft 292 kts 256°
2026-04-27 12:38 34.66209 135.29004 10976 ft 318 kts 267°
2026-04-27 12:39 34.66348 135.26252 11556 ft 334 kts 279°
2026-04-27 12:39 34.66833 135.23459 12423 ft 341 kts 283°
2026-04-27 12:39 34.67377 135.20627 13326 ft 347 kts 282°
2026-04-27 12:39 34.67636 135.17718 14162 ft 352 kts 268°
2026-04-27 12:40 34.67123 135.14787 15018 ft 356 kts 249°
2026-04-27 12:40 34.66097 135.12024 15840 ft 362 kts 244°
2026-04-27 12:40 34.64984 135.09285 16624 ft 366 kts 244°
2026-04-27 12:40 34.63841 135.06477 17438 ft 371 kts 244°
2026-04-27 12:41 34.62697 135.03652 18244 ft 376 kts 244°
2026-04-27 12:41 34.61374 135.00895 19023 ft 380 kts 234°
2026-04-27 12:41 34.59587 134.98513 19818 ft 385 kts 220°
2026-04-27 12:41 34.57435 134.96549 20594 ft 390 kts 215°
2026-04-27 12:42 34.55178 134.94677 21320 ft 395 kts 214°
2026-04-27 12:42 34.52928 134.92821 22042 ft 399 kts 214°
2026-04-27 12:42 34.50617 134.90908 22736 ft 404 kts 214°
2026-04-27 12:42 34.48287 134.88973 23431 ft 408 kts 214°
2026-04-27 12:43 34.45933 134.87014 24108 ft 413 kts 214°
2026-04-27 12:43 34.43555 134.85035 24784 ft 417 kts 214°
2026-04-27 12:43 34.41156 134.83038 25419 ft 421 kts 214°
2026-04-27 12:43 34.38730 134.81020 26035 ft 425 kts 214°
2026-04-27 12:44 34.36282 134.78983 26644 ft 429 kts 214°
2026-04-27 12:44 34.33811 134.76929 27235 ft 433 kts 214°
2026-04-27 12:44 34.31319 134.74860 27809 ft 437 kts 214°
2026-04-27 12:44 34.28845 134.72787 28359 ft 440 kts 216°
2026-04-27 12:45 34.26495 134.70394 28871 ft 444 kts 225°
2026-04-27 12:45 34.24390 134.67658 29378 ft 448 kts 229°
2026-04-27 12:45 34.22316 134.64747 29901 ft 451 kts 230°
2026-04-27 12:45 34.20303 134.61824 30393 ft 454 kts 231°
2026-04-27 12:46 34.18289 134.58873 30851 ft 458 kts 231°
2026-04-27 12:46 34.16251 134.55893 31298 ft 461 kts 230°
2026-04-27 12:46 34.14222 134.52949 31736 ft 464 kts 230°
2026-04-27 12:46 34.12143 134.49953 32147 ft 467 kts 230°
2026-04-27 12:47 34.10045 134.46945 32549 ft 470 kts 230°
2026-04-27 12:47 34.07927 134.43919 32940 ft 473 kts 230°
2026-04-27 12:47 34.05796 134.40881 33304 ft 476 kts 230°
2026-04-27 12:47 34.03650 134.37824 33643 ft 479 kts 230°
2026-04-27 12:48 34.01488 134.34748 33960 ft 483 kts 230°
2026-04-27 12:48 33.99308 134.31648 34261 ft 486 kts 230°
2026-04-27 12:48 33.97122 134.28541 34547 ft 489 kts 230°
2026-04-27 12:48 33.94939 134.25439 34884 ft 490 kts 230°
2026-04-27 12:49 33.92733 134.22309 35338 ft 489 kts 230°
2026-04-27 12:49 33.90505 134.19151 35754 ft 488 kts 230°
2026-04-27 12:49 33.88334 134.16075 36115 ft 489 kts 230°
2026-04-27 12:49 33.86134 134.12960 36433 ft 490 kts 230°
2026-04-27 12:50 33.83918 134.09826 36688 ft 493 kts 230°
2026-04-27 12:50 33.81694 134.06682 36955 ft 494 kts 230°
2026-04-27 12:50 33.79470 134.03541 37334 ft 493 kts 230°
2026-04-27 12:50 33.77253 134.00414 37702 ft 491 kts 230°
2026-04-27 12:51 33.75034 133.97285 38005 ft 492 kts 230°
2026-04-27 12:51 33.72815 133.94161 38317 ft 491 kts 230°
2026-04-27 12:51 33.70604 133.91049 38704 ft 489 kts 230°
2026-04-27 12:51 33.68401 133.87953 39062 ft 487 kts 230°
2026-04-27 12:52 33.66945 133.85907 39252 ft 487 kts 230°
2026-04-27 12:52 33.64033 133.81820 39580 ft 487 kts 230°
2026-04-27 12:52 33.61829 133.78730 39856 ft 486 kts 230°
2026-04-27 12:52 33.59627 133.75645 39989 ft 488 kts 230°
2026-04-27 12:53 33.55936 133.70468 39998 ft 487 kts 230°
2026-04-27 12:53 33.51662 133.62582 40002 ft 486 kts 240°
2026-04-27 12:54 33.48690 133.56189 39998 ft 486 kts 241°
2026-04-27 12:54 33.45472 133.49127 39999 ft 486 kts 241°
2026-04-27 12:55 33.42138 133.42085 40000 ft 486 kts 236°
2026-04-27 12:55 33.37766 133.35999 40001 ft 486 kts 225°
2026-04-27 12:56 33.32946 133.30463 40003 ft 467 kts 223°
2026-04-27 12:56 33.30604 133.27855 40009 ft 453 kts 223°
2026-04-27 12:56 33.28310 133.25308 40006 ft 449 kts 223°
2026-04-27 12:57 33.23742 133.20219 39999 ft 450 kts 223°
2026-04-27 12:57 33.19166 133.15097 39998 ft 451 kts 223°
2026-04-27 12:58 33.14588 133.09972 40000 ft 452 kts 223°
2026-04-27 12:58 33.10005 133.04839 40003 ft 451 kts 223°
2026-04-27 12:59 33.05425 132.99714 40003 ft 451 kts 223°
2026-04-27 12:59 33.00849 132.94603 39998 ft 451 kts 223°
2026-04-27 13:00 32.96575 132.89223 40000 ft 450 kts 230°
2026-04-27 13:00 32.92580 132.83576 39489 ft 443 kts 230°
2026-04-27 13:01 32.90602 132.80761 38842 ft 444 kts 230°
2026-04-27 13:01 32.88617 132.77935 38192 ft 445 kts 230°
2026-04-27 13:01 32.86639 132.75120 37487 ft 439 kts 230°
2026-04-27 13:01 32.84698 132.72358 36775 ft 430 kts 230°
2026-04-27 13:02 32.82823 132.69688 36069 ft 422 kts 230°
2026-04-27 13:02 32.80960 132.67039 35343 ft 414 kts 230°
2026-04-27 13:02 32.79138 132.64447 34760 ft 403 kts 230°
2026-04-27 13:02 32.77373 132.61936 34411 ft 387 kts 230°
2026-04-27 13:03 32.75689 132.59542 34026 ft 372 kts 230°
2026-04-27 13:03 32.74045 132.57205 33538 ft 363 kts 230°
2026-04-27 13:03 32.72440 132.54924 32966 ft 356 kts 230°
2026-04-27 13:03 32.70833 132.52729 32405 ft 349 kts 225°
2026-04-27 13:04 32.68988 132.50919 31875 ft 342 kts 215°
2026-04-27 13:04 32.67033 132.49356 31328 ft 336 kts 213°
2026-04-27 13:04 32.65020 132.47995 30741 ft 331 kts 206°
2026-04-27 13:04 32.63074 132.46577 30125 ft 326 kts 214°
2026-04-27 13:05 32.61231 132.45041 29689 ft 321 kts 216°
2026-04-27 13:05 32.59435 132.43468 29457 ft 321 kts 217°
2026-04-27 13:05 32.57676 132.41906 29275 ft 319 kts 217°
2026-04-27 13:05 32.55904 132.40334 29068 ft 318 kts 217°
2026-04-27 13:06 32.54107 132.38752 28853 ft 316 kts 217°
2026-04-27 13:06 32.52335 132.37204 28278 ft 317 kts 217°
2026-04-27 13:06 32.50596 132.35696 27756 ft 312 kts 216°
2026-04-27 13:06 32.48862 132.34198 27254 ft 306 kts 216°
2026-04-27 13:07 32.47150 132.32722 26713 ft 302 kts 216°
2026-04-27 13:07 32.45460 132.31267 26179 ft 299 kts 216°
2026-04-27 13:07 32.43789 132.29829 25628 ft 295 kts 216°
2026-04-27 13:07 32.42137 132.28407 25094 ft 292 kts 216°
2026-04-27 13:08 32.40502 132.27000 24551 ft 289 kts 216°
2026-04-27 13:08 32.38884 132.25609 24100 ft 286 kts 216°
2026-04-27 13:08 32.37346 132.24163 23897 ft 279 kts 223°
2026-04-27 13:08 32.36064 132.22518 23651 ft 274 kts 233°
2026-04-27 13:09 32.34961 132.20694 23347 ft 271 kts 236°
2026-04-27 13:09 32.33924 132.18805 23036 ft 269 kts 238°
2026-04-27 13:09 32.32959 132.16951 22713 ft 268 kts 239°
2026-04-27 13:09 32.32000 132.15071 22406 ft 266 kts 239°
2026-04-27 13:10 32.31054 132.13208 22084 ft 264 kts 239°
2026-04-27 13:10 32.30108 132.11357 21772 ft 262 kts 239°
2026-04-27 13:10 32.29163 132.09521 21457 ft 260 kts 239°
2026-04-27 13:10 32.28220 132.07701 21142 ft 259 kts 238°
2026-04-27 13:11 32.27281 132.05897 20830 ft 257 kts 238°
2026-04-27 13:11 32.26343 132.04100 20517 ft 256 kts 238°
2026-04-27 13:11 32.25431 132.02354 20214 ft 254 kts 238°
2026-04-27 13:11 32.24499 132.00570 19903 ft 253 kts 238°
2026-04-27 13:12 32.23578 131.98808 19588 ft 251 kts 238°
2026-04-27 13:12 32.22663 131.97058 19292 ft 250 kts 238°
2026-04-27 13:12 32.21751 131.95316 18993 ft 248 kts 238°
2026-04-27 13:12 32.20846 131.93586 18675 ft 247 kts 238°
2026-04-27 13:13 32.19947 131.91868 18384 ft 245 kts 238°
2026-04-27 13:13 32.19052 131.90159 18092 ft 244 kts 238°
2026-04-27 13:13 32.18163 131.88462 17790 ft 242 kts 238°
2026-04-27 13:13 32.17290 131.86797 17486 ft 241 kts 238°
2026-04-27 13:14 32.16410 131.85119 17193 ft 239 kts 238°
2026-04-27 13:14 32.15538 131.83457 16902 ft 238 kts 238°
2026-04-27 13:14 32.14667 131.81801 16600 ft 237 kts 238°
2026-04-27 13:14 32.13802 131.80155 16315 ft 235 kts 238°
2026-04-27 13:15 32.12944 131.78520 16023 ft 234 kts 238°
2026-04-27 13:15 32.12090 131.76892 15730 ft 232 kts 238°
2026-04-27 13:15 32.11242 131.75276 15438 ft 231 kts 238°
2026-04-27 13:15 32.10398 131.73671 15150 ft 230 kts 238°
2026-04-27 13:16 32.09558 131.72074 14844 ft 228 kts 238°
2026-04-27 13:16 32.08735 131.70510 14576 ft 227 kts 238°
2026-04-27 13:16 32.07904 131.68930 14290 ft 226 kts 238°
2026-04-27 13:16 32.07076 131.67360 13983 ft 225 kts 238°
2026-04-27 13:17 32.06253 131.65797 13691 ft 224 kts 238°
2026-04-27 13:17 32.05435 131.64244 13403 ft 223 kts 238°
2026-04-27 13:17 32.04619 131.62697 13109 ft 222 kts 238°
2026-04-27 13:17 32.03808 131.61160 12819 ft 220 kts 238°
2026-04-27 13:18 32.03000 131.59630 12538 ft 219 kts 238°
2026-04-27 13:18 32.02197 131.58109 12229 ft 218 kts 238°
2026-04-27 13:18 32.01407 131.56613 11947 ft 217 kts 238°
2026-04-27 13:18 32.00611 131.55107 11660 ft 216 kts 238°
2026-04-27 13:19 31.99819 131.53607 11377 ft 215 kts 238°
2026-04-27 13:19 31.99030 131.52116 11093 ft 214 kts 238°
2026-04-27 13:19 31.98244 131.50631 10809 ft 213 kts 238°
2026-04-27 13:19 31.97463 131.49155 10528 ft 212 kts 238°
2026-04-27 13:20 31.96685 131.47684 10251 ft 211 kts 238°
2026-04-27 13:20 31.95909 131.46220 9971 ft 210 kts 238°
2026-04-27 13:20 31.95138 131.44764 9697 ft 209 kts 238°
2026-04-27 13:20 31.94368 131.43318 9424 ft 208 kts 238°
2026-04-27 13:21 31.93607 131.41898 9144 ft 207 kts 238°
2026-04-27 13:21 31.92842 131.40464 8867 ft 206 kts 238°
2026-04-27 13:21 31.92080 131.39036 8603 ft 206 kts 238°
2026-04-27 13:21 31.91322 131.37615 8344 ft 205 kts 238°
2026-04-27 13:22 31.90565 131.36199 8070 ft 204 kts 238°
2026-04-27 13:22 31.89812 131.34791 7797 ft 203 kts 238°
2026-04-27 13:22 31.89059 131.33385 7507 ft 202 kts 238°
2026-04-27 13:22 31.88311 131.31987 7249 ft 202 kts 238°
2026-04-27 13:23 31.87565 131.30594 6979 ft 201 kts 238°
2026-04-27 13:23 31.86823 131.29207 6713 ft 200 kts 238°
2026-04-27 13:23 31.86091 131.27841 6432 ft 199 kts 238°
2026-04-27 13:23 31.85353 131.26464 6189 ft 199 kts 238°
2026-04-27 13:24 31.84618 131.25093 5928 ft 198 kts 238°
2026-04-27 13:24 31.83885 131.23727 5660 ft 197 kts 238°
2026-04-27 13:24 31.83155 131.22366 5404 ft 196 kts 238°
2026-04-27 13:24 31.82427 131.21009 5163 ft 196 kts 238°
2026-04-27 13:25 31.81702 131.19659 4886 ft 195 kts 238°
2026-04-27 13:25 31.80991 131.18338 4628 ft 194 kts 238°
2026-04-27 13:25 31.80257 131.16973 4389 ft 194 kts 238°
2026-04-27 13:25 31.79685 131.15908 4214 ft 193 kts 238°
2026-04-27 13:26 31.78970 131.14578 3976 ft 192 kts 238°
2026-04-27 13:26 31.78259 131.13254 3724 ft 191 kts 238°
2026-04-27 13:26 31.77558 131.11953 3475 ft 190 kts 238°
2026-04-27 13:26 31.76853 131.10643 3376 ft 190 kts 238°
2026-04-27 13:27 31.76145 131.09328 3270 ft 190 kts 238°
2026-04-27 13:27 31.75439 131.08018 3253 ft 190 kts 238°
2026-04-27 13:27 31.74730 131.06710 3253 ft 190 kts 238°
2026-04-27 13:27 31.74027 131.05398 3251 ft 190 kts 238°
2026-04-27 13:28 31.73326 131.04087 3249 ft 190 kts 238°
2026-04-27 13:28 31.72622 131.02775 3252 ft 190 kts 238°
2026-04-27 13:28 31.71924 131.01473 3253 ft 190 kts 238°
2026-04-27 13:28 31.71216 131.00155 3252 ft 190 kts 238°
2026-04-27 13:29 31.70512 130.98846 3248 ft 189 kts 238°
2026-04-27 13:29 31.69818 130.97555 3251 ft 190 kts 238°
2026-04-27 13:29 31.69114 130.96245 3251 ft 189 kts 238°
2026-04-27 13:29 31.68416 130.94950 3246 ft 189 kts 238°
2026-04-27 13:30 31.67705 130.93627 3255 ft 190 kts 238°
2026-04-27 13:30 31.67084 130.92262 3254 ft 190 kts 247°
2026-04-27 13:30 31.66681 130.90790 3253 ft 189 kts 257°
2026-04-27 13:30 31.66395 130.89282 3247 ft 189 kts 258°
2026-04-27 13:31 31.66168 130.87763 3256 ft 190 kts 264°
2026-04-27 13:31 31.66161 130.86218 3247 ft 190 kts 276°
2026-04-27 13:31 31.66427 130.84702 3095 ft 189 kts 287°
2026-04-27 13:31 31.66854 130.83246 3044 ft 189 kts 290°
2026-04-27 13:32 31.67380 130.81856 2999 ft 189 kts 299°
2026-04-27 13:32 31.68131 130.80596 2909 ft 188 kts 311°
2026-04-27 13:32 31.69096 130.79563 2782 ft 188 kts 324°
2026-04-27 13:32 31.70213 130.78760 2760 ft 188 kts 331°
2026-04-27 13:33 31.71366 130.78029 2665 ft 190 kts 329°
2026-04-27 13:33 31.72510 130.77235 2404 ft 189 kts 329°
2026-04-27 13:33 31.73625 130.76485 2139 ft 179 kts 330°
2026-04-27 13:33 31.74674 130.75776 1902 ft 168 kts 329°
2026-04-27 13:34 31.75650 130.75115 1698 ft 156 kts 329°
2026-04-27 13:34 31.76561 130.74497 1479 ft 146 kts 329°
2026-04-27 13:34 31.77401 130.73928 1306 ft 136 kts 329°
2026-04-27 13:34 31.78203 130.73386 1142 ft 131 kts 329°
2026-04-27 13:35 31.78994 130.72856 991 ft 132 kts 329°
2026-04-27 13:35 31.79779 130.72319 895 ft 123 kts 330°
2026-04-27 13:35 31.80342 130.71936 912 ft 74 kts 329°
2026-04-27 13:35 31.80597 130.71761 916 ft 34 kts 329°
2026-04-27 13:36 31.80785 130.71601 917 ft 31 kts 313°
2026-04-27 13:36 31.80811 130.71565 927 ft 7 kts 309°
2026-04-27 13:36 31.80831 130.71533 925 ft 11 kts 303°
2026-04-27 13:36 31.80835 130.71525 924 ft 0 kts 301°
2026-04-27 13:38 31.80844 130.71506 926 ft 4 kts 296°
2026-04-27 13:38 31.80851 130.71470 924 ft 5 kts 276°
2026-04-27 13:39 31.80834 130.71431 924 ft 7 kts 223°
2026-04-27 13:39 31.80774 130.71422 922 ft 12 kts 167°
2026-04-27 13:39 31.80686 130.71479 914 ft 17 kts 146°
2026-04-27 13:39 31.80576 130.71557 917 ft 19 kts 150°
2026-04-27 13:40 31.80450 130.71639 912 ft 22 kts 150°
2026-04-27 13:40 31.80311 130.71733 913 ft 24 kts 150°
2026-04-27 13:40 31.80161 130.71833 908 ft 24 kts 150°
2026-04-27 13:40 31.80082 130.71844 906 ft 4 kts 230°
2026-04-27 13:41 31.80070 130.71802 905 ft 8 kts 246°
2026-04-27 13:41 31.80045 130.71743 904 ft 0 kts 242°